DW0602 Weather Reports


Display with metric or nautical units.
time (UTC)temp
F
wind
direction
speed
MPH
gust
MPH
rain 1hr
in
rain 24hr
in
rain mn
in
humidity
%
barometer
mb
20260831060908 58 335 1.0 3.0 0.03 0.08 0.00 86 1023.7
20260831060408 58 295 1.0 2.0 0.03 0.08 0.00 85 1023.8
20260831060028 58 306 0.0 2.0 0.03 0.08 0.00 85 1024.3
20260831055907 58 298 0.0 0.0 0.03 0.08 0.08 86 1023.7
20260831055406 58 180 0.0 0.0 0.03 0.08 0.08 85 1023.7
20260831054527 58 180 0.0 1.0 0.03 0.08 0.08 84 1024.6
20260831054408 58 180 0.0 1.0 0.03 0.08 0.08 84 1024.1
20260831053904 58 173 0.0 2.0 0.03 0.08 0.08 83 1024.2
20260831053406 59 174 1.0 3.0 0.03 0.08 0.08 83 1024.5
20260831053029 59 127 0.0 4.0 0.03 0.08 0.08 81 1025.1
20260831052354 60 221 0.0 4.0 0.03 0.08 0.08 80 1024.9
20260831051531 59 252 0.0 4.0 0.05 0.05 0.05 78 1026.0
20260831050836 60 266 0.0 2.0 0.05 0.05 0.05 78 1025.2
20260831050330 60 314 0.0 1.0 0.05 0.05 0.05 77 1024.9
20260831050026 60 311 0.0 1.0 0.05 0.05 0.05 76 1025.4
20260831045823 60 312 0.0 1.0 0.05 0.05 0.05 76 1024.6
20260831044812 60 250 1.0 4.0 0.05 0.05 0.05 73 1024.5
20260831044534 60 322 1.0 3.0 0.05 0.05 0.05 72 1024.8
20260831043800 61 325 1.0 8.0 0.05 0.05 0.05 72 1024.1
20260831043253 61 334 2.0 8.0 0.05 0.05 0.05 72 1024.3
20260831043030 61 292 1.0 10.0 0.05 0.05 0.05 72 1025.0
20260831042747 62 274 4.0 14.0 0.05 0.05 0.05 71 1024.5
20260831042242 64 354 7.0 14.0 0.05 0.05 0.05 65 1024.6
20260831041736 67 288 7.0 17.0 0.02 0.02 0.02 57 1024.5
20260831041544 68 284 6.0 20.0 0.00 0.00 0.00 50 1025.0
20260831041230 69 172 7.0 19.0 0.00 0.00 0.00 44 1024.3
20260831040218 69 293 4.0 12.0 0.00 0.00 0.00 44 1024.1
20260831040031 68 338 5.0 13.0 0.00 0.00 0.00 44 1024.7
20260831035712 68 74 2.0 12.0 0.00 0.00 0.00 45 1024.0
20260831035206 68 359 1.0 5.0 0.00 0.00 0.00 46 1023.7
20260831034700 68 321 1.0 4.0 0.00 0.00 0.00 46 1023.6
20260831034529 67 327 0.0 6.0 0.00 0.00 0.00 46 1024.2
20260831034154 68 348 2.0 7.0 0.00 0.00 0.00 46 1023.4
20260831033648 68 290 2.0 8.0 0.00 0.00 0.00 46 1023.4
20260831033142 68 319 1.0 8.0 0.00 0.00 0.00 47 1023.2
20260831033012 67 288 1.0 6.0 0.00 0.00 0.00 46 1023.9
20260831032636 68 326 1.0 7.0 0.00 0.00 0.00 47 1023.4
20260831032130 68 290 2.0 7.0 0.00 0.00 0.00 48 1023.2
20260831031518 67 300 3.0 8.0 0.00 0.00 0.00 48 1023.8
20260831031118 67 350 2.0 7.0 0.00 0.00 0.00 50 1022.9
20260831030611 68 325 2.0 7.0 0.00 0.00 0.00 49 1023.0
20260831030106 68 251 2.0 6.0 0.00 0.00 0.00 49 1023.0
20260831030019 67 284 0.0 7.0 0.00 0.00 0.00 49 1023.7
20260831025600 67 340 2.0 7.0 0.00 0.00 0.00 50 1022.9
20260831025054 67 330 2.0 7.0 0.00 0.00 0.00 51 1022.9
20260831024549 67 285 1.0 4.0 0.00 0.00 0.00 52 1022.9
20260831024529 67 327 1.0 8.0 0.00 0.00 0.00 51 1023.5
20260831024041 67 271 1.0 7.0 0.00 0.00 0.00 52 1022.7
20260831023036 67 344 0.0 4.0 0.00 0.00 0.00 55 1022.6
20260831023032 66 329 0.0 4.0 0.00 0.00 0.00 54 1023.0
20260831022538 67 340 0.0 3.0 0.00 0.00 0.00 55 1022.5
20260831022034 67 339 0.0 3.0 0.00 0.00 0.00 54 1022.5
20260831021533 67 338 0.0 3.0 0.00 0.00 0.00 53 1022.4
20260831021510 66 334 0.0 3.0 0.00 0.00 0.00 53 1022.9
20260831021032 67 10 0.0 2.0 0.00 0.00 0.00 53 1022.4
20260831020533 66 3 0.0 2.0 0.00 0.00 0.00 53 1022.3
20260831020031 66 319 0.0 3.0 0.00 0.00 0.00 54 1022.3
20260831020016 66 313 0.0 3.0 0.00 0.00 0.00 53 1022.8
20260831015531 66 337 0.0 5.0 0.00 0.00 0.00 54 1022.0
20260831015031 67 338 0.0 5.0 0.00 0.00 0.00 54 1022.0
20260831014530 66 342 0.0 5.0 0.00 0.00 0.00 55 1022.0
20260831014526 66 328 0.0 5.0 0.00 0.00 0.00 54 1022.7
20260831014032 66 334 0.0 2.0 0.00 0.00 0.00 55 1022.0
20260831013529 66 334 0.0 2.0 0.00 0.00 0.00 56 1021.9
20260831013029 66 331 0.0 2.0 0.00 0.00 0.00 56 1022.6
20260831013027 66 336 0.0 2.0 0.00 0.00 0.00 56 1021.9
20260831012524 67 58 0.0 2.0 0.00 0.00 0.00 57 1021.8
20260831012026 67 52 0.0 4.0 0.00 0.00 0.00 55 1021.7
20260831011535 67 329 0.0 8.0 0.00 0.00 0.00 53 1022.2
20260831011524 68 335 1.0 7.0 0.00 0.00 0.00 54 1021.5
20260831011023 68 309 1.0 7.0 0.00 0.00 0.00 54 1021.5
20260831010020 68 300 1.0 7.0 0.00 0.00 0.00 54 1021.7
20260831010016 67 296 1.0 8.0 0.00 0.00 0.00 54 1022.2
20260831005513 68 330 1.0 7.0 0.00 0.00 0.00 55 1021.5
20260831005006 67 40 1.0 7.0 0.00 0.00 0.00 55 1021.7
20260831004519 67 5 0.0 4.0 0.00 0.00 0.00 56 1022.4
20260831004501 67 1 0.0 4.0 0.00 0.00 0.00 57 1021.7
20260831003955 67 319 1.0 4.0 0.00 0.00 0.00 57 1021.8
20260831003028 67 313 0.0 5.0 0.00 0.00 0.00 56 1022.6
20260831002943 68 11 0.0 5.0 0.00 0.00 0.00 56 1022.0
20260831002437 68 108 1.0 6.0 0.00 0.00 0.00 57 1022.1
20260831001932 68 19 1.0 8.0 0.00 0.00 0.00 56 1022.3
20260831001507 67 13 1.0 9.0 0.00 0.00 0.00 55 1022.8
20260831001425 68 331 3.0 8.0 0.00 0.00 0.00 56 1022.3
20260831000919 68 330 3.0 9.0 0.00 0.00 0.00 56 1022.3
20260831000021 68 278 2.0 11.0 0.00 0.00 0.00 56 1022.6
20260830235907 68 321 3.0 10.0 0.00 0.00 0.00 56 1022.0
20260830235401 68 349 2.0 8.0 0.00 0.00 0.00 54 1022.4
20260830234855 69 281 3.0 8.0 0.00 0.00 0.00 54 1022.5
20260830234517 68 306 3.0 11.0 0.00 0.00 0.00 54 1023.1
20260830234349 69 2 3.0 12.0 0.00 0.00 0.00 55 1022.6
20260830233337 69 89 3.0 13.0 0.00 0.00 0.00 55 1022.5
20260830233034 68 86 4.0 14.0 0.00 0.00 0.00 54 1022.9
20260830232831 68 280 4.0 13.0 0.00 0.00 0.00 54 1022.4
20260830232325 68 0 3.0 12.0 0.00 0.00 0.00 55 1022.4
20260830231819 68 359 4.0 14.0 0.00 0.00 0.00 55 1022.4
20260830231532 68 25 3.0 15.0 0.00 0.00 0.00 54 1022.9
20260830231313 68 9 4.0 14.0 0.00 0.00 0.00 54 1022.4
20260830230807 69 68 3.0 12.0 0.00 0.00 0.00 53 1022.3
20260830230301 69 294 3.0 11.0 0.00 0.00 0.00 53 1022.0
20260830230012 69 17 2.0 13.0 0.00 0.00 0.00 52 1022.5
20260830225754 69 36 5.0 12.0 0.00 0.00 0.00 52 1021.8
20260830224743 71 359 5.0 16.0 0.00 0.00 0.00 47 1021.5
20260830224516 72 250 5.0 17.0 0.00 0.00 0.00 44 1022.2
20260830224237 73 343 3.0 16.0 0.00 0.00 0.00 43 1021.3
20260830223731 73 323 0.0 3.0 0.00 0.00 0.00 39 1021.0
20260830223225 73 294 0.0 1.0 0.00 0.00 0.00 41 1020.9
20260830223019 73 290 0.0 3.0 0.00 0.00 0.00 50 1021.5
20260830222718 73 294 2.0 12.0 0.00 0.00 0.00 43 1021.0
20260830221707 74 248 5.0 12.0 0.00 0.00 0.00 38 1021.5
20260830221528 73 176 4.0 13.0 0.00 0.00 0.00 37 1022.4
20260830221201 74 167 5.0 14.0 0.00 0.00 0.00 39 1022.0
20260830220654 75 203 3.0 14.0 0.00 0.00 0.00 38 1021.9
20260830220028 76 188 2.0 9.0 0.00 0.00 0.00 39 1022.0
20260830215643 76 236 2.0 6.0 0.00 0.00 0.00 40 1021.2
20260830214636 76 208 2.0 7.0 0.00 0.00 0.00 39 1021.0
20260830214512 76 145 3.0 7.0 0.00 0.00 0.00 39 1021.7
20260830214137 76 152 2.0 5.0 0.00 0.00 0.00 40 1020.9
20260830213635 77 152 1.0 5.0 0.00 0.00 0.00 41 1020.9
20260830213136 77 125 2.0 5.0 0.00 0.00 0.00 41 1020.8
20260830213019 76 198 0.0 6.0 0.00 0.00 0.00 39 1021.5
20260830212134 77 158 1.0 4.0 0.00 0.00 0.00 40 1020.7
20260830211633 78 143 2.0 5.0 0.00 0.00 0.00 40 1020.8
20260830211526 78 171 2.0 6.0 0.00 0.00 0.00 36 1021.5
20260830210128 79 159 1.0 5.0 0.00 0.00 0.00 36 1020.8
20260830210035 79 179 0.0 7.0 0.00 0.00 0.00 37 1021.5
20260830205127 79 148 2.0 6.0 0.00 0.00 0.00 38 1020.7
20260830204626 79 131 3.0 6.0 0.00 0.00 0.00 38 1020.7
20260830204535 79 111 1.0 7.0 0.00 0.00 0.00 36 1021.4
20260830204125 79 124 3.0 6.0 0.00 0.00 0.00 38 1020.8
20260830203624 79 193 2.0 5.0 0.00 0.00 0.00 37 1020.7
20260830203120 79 171 2.0 5.0 0.00 0.00 0.00 37 1020.7
20260830203015 78 134 2.0 6.0 0.00 0.00 0.00 37 1021.4
20260830202620 79 185 2.0 5.0 0.00 0.00 0.00 37 1020.7
20260830202120 78 139 2.0 6.0 0.00 0.00 0.00 39 1020.7
20260830201619 78 144 3.0 7.0 0.00 0.00 0.00 38 1020.8
20260830201522 78 143 2.0 9.0 0.00 0.00 0.00 41 1021.5
20260830200621 78 110 3.0 5.0 0.00 0.00 0.00 39 1020.9
20260830200120 79 123 2.0 6.0 0.00 0.00 0.00 36 1020.9
20260830200028 78 152 2.0 7.0 0.00 0.00 0.00 36 1021.7
20260830195620 79 116 2.0 6.0 0.00 0.00 0.00 38 1020.9
20260830195121 79 162 2.0 6.0 0.00 0.00 0.00 38 1020.9
20260830194530 79 128 2.0 10.0 0.00 0.00 0.00 38 1021.8
20260830194117 79 269 3.0 9.0 0.00 0.00 0.00 36 1021.0
20260830193617 79 158 3.0 9.0 0.00 0.00 0.00 38 1021.2
20260830193117 79 115 2.0 8.0 0.00 0.00 0.00 39 1021.2
20260830193031 78 117 2.0 9.0 0.00 0.00 0.00 36 1022.0
20260830192617 79 108 3.0 8.0 0.00 0.00 0.00 36 1021.3
20260830192117 79 117 3.0 6.0 0.00 0.00 0.00 35 1021.2
20260830191616 79 181 2.0 6.0 0.00 0.00 0.00 36 1021.0
20260830191521 79 143 2.0 6.0 0.00 0.00 0.00 36 1021.9
20260830191115 79 53 2.0 6.0 0.00 0.00 0.00 39 1021.2
20260830190617 79 240 3.0 7.0 0.00 0.00 0.00 36 1021.2
20260830190112 79 129 3.0 7.0 0.00 0.00 0.00 37 1021.3
20260830190025 79 76 3.0 8.0 0.00 0.00 0.00 36 1022.0
20260830185611 80 142 2.0 7.0 0.00 0.00 0.00 34 1021.3
20260830185113 80 158 2.0 7.0 0.00 0.00 0.00 34 1021.4
20260830184611 80 165 2.0 9.0 0.00 0.00 0.00 35 1021.5
20260830184526 80 149 1.0 10.0 0.00 0.00 0.00 36 1022.2
20260830184112 81 112 2.0 9.0 0.00 0.00 0.00 35 1021.5
20260830183612 81 122 2.0 8.0 0.00 0.00 0.00 34 1021.5
20260830183112 81 148 2.0 6.0 0.00 0.00 0.00 33 1021.5
20260830183031 81 171 2.0 6.0 0.00 0.00 0.00 34 1022.4
20260830182612 81 228 2.0 5.0 0.00 0.00 0.00 34 1021.5
20260830182113 80 39 2.0 7.0 0.00 0.00 0.00 35 1021.8
20260830181607 80 295 3.0 11.0 0.00 0.00 0.00 33 1021.5
20260830181535 79 258 2.0 12.0 0.00 0.00 0.00 33 1022.4
20260830181106 79 290 4.0 11.0 0.00 0.00 0.00 35 1021.5
20260830180606 79 294 3.0 9.0 0.00 0.00 0.00 32 1021.4
20260830180107 79 283 2.0 6.0 0.00 0.00 0.00 35 1021.5
20260830180023 79 260 1.0 6.0 0.00 0.00 0.00 35 1022.3
20260830175605 79 288 1.0 5.0 0.00 0.00 0.00 34 1021.7
20260830175105 78 90 2.0 6.0 0.00 0.00 0.00 38 1021.9
20260830174607 78 193 1.0 6.0 0.00 0.00 0.00 35 1022.0
20260830174527 77 169 2.0 7.0 0.00 0.00 0.00 34 1022.7
20260830174107 77 220 0.0 2.0 0.00 0.00 0.00 44 1022.1
20260830173604 76 119 0.0 2.0 0.00 0.00 0.00 42 1022.1
20260830173030 75 28 0.0 1.0 0.00 0.00 0.00 43 1022.8
20260830172559 75 21 0.0 1.0 0.00 0.00 0.00 42 1022.3
20260830172053 75 21 0.0 2.0 0.00 0.00 0.00 45 1022.3
20260830171547 74 21 1.0 3.0 0.00 0.00 0.00 42 1022.3
20260830171533 74 28 0.0 3.0 0.00 0.00 0.00 41 1022.8
20260830171041 74 343 1.0 3.0 0.00 0.00 0.00 43 1022.4
20260830170535 73 146 0.0 2.0 0.00 0.00 0.00 50 1022.4
20260830170032 72 213 0.0 3.0 0.00 0.00 0.00 50 1023.0
20260830165523 72 126 0.0 3.0 0.00 0.00 0.00 56 1022.4
20260830165017 71 221 0.0 1.0 0.00 0.00 0.00 55 1022.4
20260830164550 70 235 0.0 3.0 0.00 0.00 0.00 53 1023.1
20260830164005 70 316 0.0 3.0 0.00 0.00 0.00 58 1022.3
20260830163459 69 311 0.0 2.0 0.00 0.00 0.00 55 1022.3
20260830163029 68 352 0.0 1.0 0.00 0.00 0.00 56 1022.9
20260830162953 69 359 0.0 1.0 0.00 0.00 0.00 58 1022.3
20260830162447 68 49 0.0 2.0 0.00 0.00 0.00 55 1022.3
20260830161533 67 319 0.0 6.0 0.00 0.00 0.00 57 1022.8
20260830161443 67 344 1.0 5.0 0.00 0.00 0.00 57 1022.1
20260830160944 67 13 1.0 5.0 0.00 0.00 0.00 58 1022.3
20260830160445 67 100 0.0 3.0 0.00 0.00 0.00 63 1022.0
20260830160034 67 275 0.0 3.0 0.00 0.00 0.00 55 1022.9
20260830155944 67 278 0.0 3.0 0.00 0.00 0.00 56 1022.3
20260830154942 67 226 0.0 0.0 0.00 0.00 0.00 60 1022.3
20260830154521 67 145 0.0 0.0 0.00 0.00 0.00 56 1022.7
20260830154443 67 143 0.0 0.0 0.00 0.00 0.00 57 1022.1
20260830153942 67 143 0.0 0.0 0.00 0.00 0.00 62 1022.0
20260830153440 67 143 0.0 0.0 0.00 0.00 0.00 63 1022.3
20260830153032 66 144 0.0 0.0 0.00 0.00 0.00 57 1022.8
20260830152939 67 143 0.0 0.0 0.00 0.00 0.00 58 1022.1
20260830152438 67 143 0.0 0.0 0.00 0.00 0.00 64 1022.0
20260830151934 67 143 0.0 2.0 0.00 0.00 0.00 58 1021.9
20260830151509 66 144 0.0 2.0 0.00 0.00 0.00 59 1022.5
20260830151432 66 143 0.0 2.0 0.00 0.00 0.00 60 1021.9
20260830150930 66 127 0.0 2.0 0.00 0.00 0.00 59 1022.0
20260830150427 66 120 0.0 1.0 0.00 0.00 0.00 60 1022.0
20260830150011 65 130 0.0 1.0 0.00 0.00 0.00 60 1022.8
20260830145927 66 127 0.0 2.0 0.00 0.00 0.00 60 1022.3
20260830145427 65 127 1.0 4.0 0.00 0.00 0.00 61 1022.1
20260830144923 65 138 1.0 4.0 0.00 0.00 0.00 59 1022.1
20260830144517 64 124 0.0 3.0 0.00 0.00 0.00 60 1022.7
20260830144424 65 111 1.0 3.0 0.00 0.00 0.00 60 1022.3
20260830143918 64 65 1.0 3.0 0.00 0.00 0.00 61 1022.0
20260830143412 64 93 1.0 3.0 0.00 0.00 0.00 63 1022.1
20260830143030 63 93 0.0 3.0 0.00 0.00 0.00 65 1022.8
20260830142906 64 89 0.0 3.0 0.00 0.00 0.00 66 1022.1
20260830142400 63 126 0.0 1.0 0.00 0.00 0.00 68 1022.3
20260830141853 62 206 0.0 0.0 0.00 0.00 0.00 71 1022.3
20260830141538 61 294 0.0 0.0 0.00 0.00 0.00 76 1022.8
20260830141347 61 299 0.0 0.0 0.00 0.00 0.00 77 1022.3
20260830140336 60 299 0.0 0.0 0.00 0.00 0.00 75 1022.4
20260830140007 59 294 0.0 0.0 0.00 0.00 0.00 71 1022.9
20260830135830 60 299 0.0 0.0 0.00 0.00 0.00 73 1022.3
20260830135324 59 299 0.0 0.0 0.00 0.00 0.00 76 1022.3
20260830134818 59 297 0.0 0.0 0.00 0.00 0.00 77 1022.0
20260830134526 58 291 0.0 0.0 0.00 0.00 0.00 78 1022.7
20260830134312 58 295 0.0 0.0 0.00 0.00 0.00 79 1022.0
20260830133806 58 290 0.0 0.0 0.00 0.00 0.00 78 1022.1
20260830133300 58 280 0.0 0.0 0.00 0.00 0.00 79 1022.1
20260830133021 58 275 0.0 1.0 0.00 0.00 0.00 78 1022.7
20260830132754 58 278 0.0 1.0 0.00 0.00 0.00 77 1022.1
20260830132248 57 276 0.0 1.0 0.00 0.00 0.00 76 1022.3
20260830131742 57 276 0.0 0.0 0.00 0.00 0.00 77 1022.0
20260830131528 57 273 0.0 0.0 0.00 0.00 0.00 76 1022.7
20260830131235 57 276 0.0 0.0 0.00 0.00 0.00 77 1022.0
20260830130730 57 276 0.0 0.0 0.00 0.00 0.00 77 1022.0
20260830130224 57 276 0.0 0.0 0.00 0.00 0.00 76 1021.9
20260830130045 57 273 0.0 0.0 0.00 0.00 0.00 76 1022.5
20260830125211 58 276 0.0 1.0 0.00 0.00 0.00 75 1021.8
20260830124706 57 276 0.0 3.0 0.00 0.00 0.00 75 1021.7
20260830124512 57 273 0.0 3.0 0.00 0.00 0.00 74 1022.1
20260830124200 57 276 0.0 3.0 0.00 0.00 0.00 75 1021.7
20260830123653 57 359 0.0 0.0 0.00 0.00 0.00 75 1021.5
20260830123017 57 355 0.0 0.0 0.00 0.00 0.00 74 1022.1
20260830122641 58 359 0.0 0.0 0.00 0.00 0.00 74 1021.5
20260830122136 58 359 0.0 0.0 0.00 0.00 0.00 74 1021.4
20260830121630 58 359 0.0 0.0 0.00 0.00 0.00 74 1021.5
20260830121533 58 355 0.0 0.0 0.00 0.00 0.00 73 1022.0
20260830121124 58 359 0.0 0.0 0.00 0.00 0.00 73 1021.5
20260830120618 58 359 0.0 0.0 0.00 0.00 0.00 72 1021.4
20260830120112 58 359 0.0 0.0 0.00 0.00 0.00 72 1021.3
20260830120031 58 355 0.0 0.0 0.00 0.00 0.00 72 1021.9
20260830115606 58 359 0.0 0.0 0.00 0.00 0.00 72 1021.3
20260830115100 58 359 0.0 0.0 0.00 0.00 0.00 72 1021.2
20260830114555 58 359 0.0 0.0 0.00 0.00 0.00 71 1021.0
20260830114531 58 355 0.0 0.0 0.00 0.00 0.00 71 1021.7
20260830114048 59 359 0.0 1.0 0.00 0.00 0.00 72 1020.9
20260830113541 59 359 0.0 1.0 0.00 0.00 0.00 71 1020.9
20260830113036 59 124 0.0 1.0 0.00 0.00 0.00 70 1020.8
20260830113018 58 127 0.0 1.0 0.00 0.00 0.00 69 1021.5
20260830112024 59 347 0.0 0.0 0.00 0.00 0.00 71 1020.8
20260830111518 59 312 0.0 0.0 0.00 0.00 0.00 69 1021.6
20260830111012 59 317 0.0 0.0 0.00 0.00 0.00 70 1020.9
20260830110506 59 317 0.0 0.0 0.00 0.00 0.00 69 1020.9
20260830110030 59 312 0.0 0.0 0.00 0.00 0.00 69 1021.6
20260830110000 60 317 0.0 0.0 0.00 0.00 0.00 69 1020.9
20260830105454 60 317 0.0 0.0 0.00 0.00 0.00 68 1020.9
20260830104948 60 317 0.0 0.0 0.00 0.00 0.00 69 1020.9
20260830104530 59 312 0.0 0.0 0.00 0.00 0.00 67 1021.5
20260830103935 59 325 0.0 0.0 0.00 0.00 0.00 69 1020.7
20260830103430 60 325 0.0 0.0 0.00 0.00 0.00 68 1020.6
20260830103036 60 319 0.0 1.0 0.00 0.00 0.00 67 1021.3
20260830102924 60 325 0.0 1.0 0.00 0.00 0.00 67 1020.7
20260830101912 60 330 0.0 3.0 0.00 0.00 0.00 68 1020.9
20260830101515 59 289 0.0 1.0 0.00 0.00 0.00 68 1021.6
20260830100900 60 221 0.0 1.0 0.00 0.00 0.00 68 1020.8
20260830100026 60 261 0.0 1.0 0.00 0.00 0.00 66 1021.7
20260830095848 60 264 0.0 1.0 0.00 0.00 0.00 67 1021.0
20260830095342 60 293 0.0 1.0 0.00 0.00 0.00 67 1021.0
20260830094836 60 338 0.0 1.0 0.00 0.00 0.00 66 1021.3
20260830094533 60 331 0.0 1.0 0.00 0.00 0.00 66 1021.9
20260830094330 61 338 0.0 0.0 0.00 0.00 0.00 66 1021.3
20260830093824 61 338 0.0 1.0 0.00 0.00 0.00 66 1021.3
20260830093318 61 338 0.0 1.0 0.00 0.00 0.00 66 1021.2
20260830093031 60 315 0.0 0.0 0.00 0.00 0.00 66 1021.9
20260830092812 61 217 0.0 0.0 0.00 0.00 0.00 68 1021.2
20260830091537 60 226 0.0 1.0 0.00 0.00 0.00 66 1021.9
20260830091253 61 201 0.0 1.0 0.00 0.00 0.00 66 1021.2
20260830090241 61 210 1.0 3.0 0.00 0.00 0.00 66 1021.0
20260830090022 60 163 1.0 3.0 0.00 0.00 0.00 66 1021.7
20260830085742 61 181 0.0 3.0 0.00 0.00 0.00 66 1021.0
20260830085242 60 197 0.0 1.0 0.00 0.00 0.00 66 1020.9
20260830084740 61 208 0.0 0.0 0.00 0.00 0.00 67 1020.9
20260830084528 60 207 0.0 0.0 0.00 0.00 0.00 65 1021.5
20260830084241 61 208 0.0 0.0 0.00 0.00 0.00 66 1020.9
20260830083741 60 162 0.0 0.0 0.00 0.00 0.00 66 1020.9
20260830083242 60 162 0.0 1.0 0.00 0.00 0.00 66 1020.8
20260830083030 60 163 0.0 1.0 0.00 0.00 0.00 66 1021.4
20260830082743 61 162 0.0 1.0 0.00 0.00 0.00 68 1020.9
20260830082239 61 323 0.0 0.0 0.00 0.00 0.00 67 1020.9
20260830081738 62 323 0.0 0.0 0.00 0.00 0.00 67 1020.9
20260830081544 61 317 0.0 0.0 0.00 0.00 0.00 63 1021.3
20260830081235 62 323 0.0 0.0 0.00 0.00 0.00 63 1020.8
20260830080733 62 323 0.0 0.0 0.00 0.00 0.00 64 1020.9
20260830080231 62 323 0.0 0.0 0.00 0.00 0.00 63 1021.0
20260830080033 62 317 0.0 0.0 0.00 0.00 0.00 63 1021.4
20260830075729 62 323 0.0 0.0 0.00 0.00 0.00 63 1020.9
20260830075230 62 323 0.0 0.0 0.00 0.00 0.00 63 1020.9
20260830074730 63 330 0.0 0.0 0.00 0.00 0.00 62 1020.9
20260830074528 63 325 0.0 0.0 0.00 0.00 0.00 61 1021.4
20260830074230 63 330 0.0 0.0 0.00 0.00 0.00 62 1020.9
20260830073729 64 296 0.0 0.0 0.00 0.00 0.00 58 1020.9
20260830073029 64 292 0.0 0.0 0.00 0.00 0.00 58 1021.4
20260830072729 64 296 0.0 1.0 0.00 0.00 0.00 58 1021.0
20260830072222 64 296 0.0 1.0 0.00 0.00 0.00 58 1021.0
20260830071542 64 333 0.0 1.0 0.00 0.00 0.00 57 1021.4
20260830071211 64 340 0.0 1.0 0.00 0.00 0.00 57 1021.0
20260830070710 65 340 0.0 1.0 0.00 0.00 0.00 57 1021.0
20260830070207 65 311 0.0 4.0 0.00 0.00 0.00 57 1021.0
20260830070037 64 306 0.0 4.0 0.00 0.00 0.00 56 1021.6
20260830065706 65 314 0.0 4.0 0.00 0.00 0.00 57 1021.2
20260830065206 64 305 0.0 3.0 0.00 0.00 0.00 57 1021.3
20260830064703 64 308 0.0 2.0 0.00 0.00 0.00 57 1021.4
20260830064519 64 323 0.0 2.0 0.00 0.00 0.00 57 1021.9
20260830064204 64 335 0.0 2.0 0.00 0.00 0.00 58 1021.5
20260830063704 64 351 0.0 0.0 0.00 0.00 0.00 58 1021.4
20260830063035 64 344 0.0 3.0 0.00 0.00 0.00 58 1022.1
20260830062700 64 351 1.0 5.0 0.00 0.00 0.00 58 1021.5
20260830062200 64 347 1.0 5.0 0.00 0.00 0.00 57 1021.5
20260830061506 63 331 0.0 4.0 0.00 0.00 0.00 57 1022.1
20260830061159 64 324 0.0 4.0 0.00 0.00 0.00 58 1021.5